[[{"header":{"parameterUnit":"m.s-1","parameterCategory":1,"la1":30.2991,"la2":30.254,"lo1":-89.0895,"lo2":-89.0444,"dy":0.0017,"dx":0.0017,"nx":28,"ny":28,"refTime":"2023-10-01T09:00:00:Z","depth":0,"parameterNumber":2,"parameterNumberName":"U-component_of_WINDS"},"data":[0,0,0,0,0,0,0,0,0,0,0,0,0,0,0,0,0,0,0,0,0,0,0,0,0,0,0,0,0,0,0,0,0,0,0,0,0,0,0,0,0,0,0,0,0,0,0,0,0,0,0,0,0,0,0,0,0,0,-3.1915,-3.1915,0,-3.191,-3.191,-3.191,-3.1716,-3.1711,-3.1705,-3.1701,-3.1704,-3.1709,-3.1713,0,0,0,0,0,0,0,0,0,0,0,0,0,-3.1763,-3.1767,-3.1915,-3.1915,-3.1915,-3.191,-3.191,-3.191,-3.1716,-3.171,-3.1704,-3.1698,-3.1702,-3.1708,-3.1714,0,0,0,0,0,0,0,0,0,0,0,0,0,-3.1801,-3.1768,-3.1915,-3.1818,-3.1809,-3.191,-3.191,-3.191,-3.1718,-3.171,-3.1703,-3.1695,-3.17,-3.1707,-3.1715,-3.1911,0,0,-3.1737,-3.174,0,0,0,0,0,0,0,0,-3.1799,-3.1807,-3.1832,-3.1824,-3.1815,-3.1805,-3.1857,-3.1911,-3.172,-3.1753,-3.1701,-3.1692,-3.1744,-3.1748,-3.1764,-3.1912,-3.1912,-3.1737,-3.1742,-3.1745,-3.1747,0,0,0,0,0,0,0,-3.1797,-3.1806,-3.1913,-3.1833,-3.1822,-3.1776,-3.1773,-3.1867,-3.1792,-3.1749,-3.1735,-3.1737,-3.1738,-3.1757,-3.1762,-3.1912,-3.1737,-3.1743,-3.1748,-3.1751,-3.2221,-3.2229,0,0,0,0,0,0,-3.1807,-3.1805,-3.1913,-3.1913,-3.1788,-3.1785,-3.1782,-3.1816,-3.179,-3.1778,-3.1743,-3.1728,-3.1748,-3.1754,-3.1762,-3.1991,-3.1745,-3.1751,-3.1756,-3.2213,-3.2223,-3.2232,0,0,0,0,0,0,-3.1804,-3.1818,-3.1914,-3.1855,-3.1864,-3.1796,-3.1836,-3.182,-3.1839,-3.1785,-3.1772,-3.1776,-3.1743,-3.1751,-3.1875,-3.1988,-3.1755,-3.1761,-3.2204,-3.2216,-3.2228,-3.2451,0,0,0,0,0,0,-3.1801,-3.1818,-3.1891,-3.1858,-3.1868,-3.2026,-3.1843,-3.1826,-3.1851,-3.183,-3.1812,-3.1802,-3.1737,-3.1865,-3.1882,-3.1994,-3.1767,-3.2193,-3.2209,-3.2224,-3.2433,-3.2469,-3.25,0,0,0,0,0,-3.1796,-3.1956,-3.1896,-3.191,-3.1957,-3.2033,-3.2038,-3.1958,-3.1861,-3.1934,-3.19,-3.1803,-3.1973,-3.188,-3.1897,-3.2013,-3.2186,-3.2205,-3.2222,-3.2418,-3.2462,-3.2499,0,0,0,0,0,0,-3.2007,-3.195,-3.1883,-3.2036,-3.2041,-3.2,-3.209,-3.2008,-3.2042,-3.2022,-3.1923,-3.1921,-3.2061,-3.2048,-3.1946,-3.2202,-3.2062,-3.2085,-3.2205,-3.2246,-3.2279,-3.228,-3.1773,0,0,0,0,0,-3.2071,-3.2135,-3.2082,-3.2223,-3.2229,-3.216,-3.219,-3.2127,-3.2129,-3.2131,-3.2105,-3.2113,-3.2167,-3.2206,-3.2253,-3.243,-3.2424,-3.2518,-3.2551,-3.2579,-3.2601,-3.2694,-3.2736,-3.2292,-3.2292,-3.2292,0,0,-3.2205,-3.2181,-3.2229,-3.2265,-3.2261,-3.2332,-3.2163,-3.2245,-3.2297,-3.2144,-3.2258,-3.224,-3.2242,-3.2393,-3.2458,-3.2387,-3.2721,-3.2602,-3.2625,-3.2631,-3.2717,-3.2759,-3.2797,-3.2305,-3.2302,-3.2301,0,0,-3.2485,-3.2473,-3.2589,-3.2588,-3.2582,-3.2535,-3.2563,-3.2535,-3.2516,-3.2629,-3.2515,-3.2577,-3.2673,-3.2679,-3.2695,-3.2976,-3.2889,-3.2995,-3.3171,-3.3263,-3.3298,-3.3328,-3.343,-3.3468,-3.3016,-3.3016,-3.3017,0,-3.2653,-3.2753,-3.266,-3.2749,-3.2769,-3.263,-3.2749,-3.2753,-3.2765,-3.2783,-3.2702,-3.282,-3.2811,-3.2962,-3.3031,-3.3047,-3.3078,-3.2997,-3.33,-3.333,-3.3357,-3.3453,-3.3491,-3.3029,-3.3028,-3.3027,-3.3025,0,-3.296,-3.3031,-3.3126,-3.3138,-3.3168,-3.3272,-3.3197,-3.324,-3.3174,-3.3137,-3.3254,-3.3238,-3.328,-3.3311,-3.3249,-3.3454,-3.341,-3.3316,-3.3174,-3.3414,-3.3502,-3.3538,-3.3048,-3.3043,-3.3039,-3.3036,0,0,-3.3375,-3.3333,-3.337,-3.3373,-3.3357,-3.3411,-3.3509,-3.3547,-3.3586,-3.3599,-3.368,-3.3764,-3.3676,-3.3695,-3.3632,-3.3713,-3.3939,-3.3609,-3.3607,-3.3672,-3.4165,-3.4237,-3.4281,-3.3879,-3.3886,-3.3891,-3.4165,0,-3.3647,-3.3809,-3.3728,-3.3901,-3.3967,-3.3835,-3.392,-3.3921,-3.3888,-3.394,-3.3904,-3.3966,-3.3845,-3.3855,-3.3929,-3.3896,-3.4037,-3.3874,-3.3957,-3.3961,-3.3962,-3.4327,-3.4404,-3.4663,-3.4199,-3.4205,-3.4209,0,-3.3986,-3.4011,-3.419,-3.4161,-3.4185,-3.4263,-3.4291,-3.4342,-3.4341,-3.4311,-3.4331,-3.4249,-3.4345,-3.4203,-3.4335,-3.4227,-3.4255,-3.4244,-3.4252,-3.4259,-3.4101,-3.4346,-3.4743,-3.4784,-3.4263,-3.4258,-3.4255,0,-3.4273,-3.4351,-3.4468,-3.4475,-3.4444,-3.4502,-3.4492,-3.4482,-3.451,-3.4536,-3.4554,-3.4591,-3.4613,-3.4645,-3.4577,-3.4479,-3.472,-3.4571,-3.47,-3.4702,-3.4758,-3.4756,-3.5169,-3.4775,-3.4774,-3.4773,-3.4772,0,-3.4586,-3.4702,-3.4596,-3.4669,-3.4794,-3.47,-3.4828,-3.4804,-3.4797,-3.4864,-3.4753,-3.4819,-3.4724,-3.4781,-3.4729,-3.4847,-3.4857,-3.4838,-3.4823,-3.4849,-3.4852,-3.4868,-3.4849,-3.4783,-3.4781,-3.4779,-3.4777,0,-3.4929,-3.4862,-3.4981,-3.4941,-3.4934,-3.5028,-3.4995,-3.5061,-3.5019,-3.5106,-3.5121,-3.5057,-3.5119,-3.5053,-3.5111,-3.5075,-3.5236,-3.5193,-3.5236,-3.5224,-3.5358,-3.5347,-3.5797,-3.5852,-3.5421,-3.5425,-3.5429,0,-3.5134,-3.5219,-3.5187,-3.5222,-3.5219,-3.5278,-3.5305,-3.5216,-3.525,-3.5254,-3.5321,-3.5372,-3.5409,-3.5514,-3.5475,-3.5518,-3.5478,-3.5632,-3.5484,-3.5507,-3.5482,-3.5478,-3.5487,-3.5663,-3.5669,-3.5673,-3.5676,0,-3.5505,-3.5468,-3.551,-3.5542,-3.5576,-3.5598,-3.561,-3.5647,-3.5554,-3.5598,-3.5658,-3.5687,-3.5744,-3.5798,-3.583,-3.5822,-3.5736,-3.5723,-3.5755,-3.5784,-3.5805,-3.5797,-3.532,-3.5713,-3.571,-3.5707,-3.5705,-3.5703,-3.5786,-3.5856,-3.5844,-3.5895,-3.5894,-3.5909,-3.5969,-3.5934,-3.5982,-3.602,-3.5965,-3.604,-3.6037,-3.607,-3.6072,-3.6132,-3.6066,-3.6113,-3.6125,-3.6139,-3.6159,-3.5794,-3.6137,-3.6136,-3.6135,-3.6134,-3.6133,0,-3.6153,-3.6138,-3.6186,-3.6206,-3.6247,-3.6157,-3.6167,-3.6208,-3.6275,-3.6277,-3.6315,-3.6385,-3.6436,-3.64,-3.6443,-3.6498,-3.646,-3.6513,-3.6509,-3.6509,-3.6214,-3.6183,-3.6543,-3.6543,-3.6543,-3.6543,-3.6543,-3.6543,-3.6349,-3.6462,-3.6423,-3.6536,-3.652,-3.6591,-3.6604,-3.6618,-3.6619,-3.6701,-3.6742,-3.6717,-3.6705,-3.6746,-3.679,-3.6778,-3.6801,-3.6869,-3.6843,-3.657,-3.6529,-3.6491,-3.6461,-3.6874,-3.6874,-3.7132,-3.7135,-3.7137]},{"header":{"parameterUnit":"m.s-1","parameterCategory":1,"la1":30.2991,"la2":30.254,"lo1":-89.0895,"lo2":-89.0444,"dy":0.0017,"dx":0.0017,"nx":28,"ny":28,"refTime":"2023-10-01T09:00:00:Z","depth":0,"parameterNumber":3,"parameterNumberName":"V-component_of_WINDS"},"data":[0,0,0,0,0,0,0,0,0,0,0,0,0,0,0,0,0,0,0,0,0,0,0,0,0,0,0,0,0,0,0,0,0,0,0,0,0,0,0,0,0,0,0,0,0,0,0,0,0,0,0,0,0,0,0,0,0,0,-1.1306,-1.1307,0,-1.1396,-1.1397,-1.1398,-1.148,-1.1481,-1.1482,-1.1483,-1.1568,-1.157,-1.1571,0,0,0,0,0,0,0,0,0,0,0,0,0,-1.1199,-1.1201,-1.1306,-1.1307,-1.1308,-1.1395,-1.1397,-1.1398,-1.148,-1.1481,-1.1482,-1.1483,-1.1568,-1.1569,-1.1571,0,0,0,0,0,0,0,0,0,0,0,0,0,-1.1263,-1.1201,-1.1306,-1.136,-1.1366,-1.1395,-1.1397,-1.1398,-1.1479,-1.1481,-1.1483,-1.1484,-1.1567,-1.1569,-1.1571,-1.1553,0,0,-1.1577,-1.1578,0,0,0,0,0,0,0,0,-1.1259,-1.1266,-1.1351,-1.1356,-1.1363,-1.1428,-1.1391,-1.145,-1.1479,-1.1436,-1.1483,-1.1485,-1.152,-1.1526,-1.1539,-1.1557,-1.1561,-1.1577,-1.1579,-1.158,-1.158,0,0,0,0,0,0,0,-1.1254,-1.1263,-1.1341,-1.1352,-1.1359,-1.1377,-1.1388,-1.1402,-1.1468,-1.144,-1.1446,-1.1456,-1.1524,-1.1537,-1.1542,-1.1562,-1.1577,-1.1579,-1.158,-1.1581,-1.1567,-1.1565,0,0,0,0,0,0,-1.1243,-1.1259,-1.1338,-1.1344,-1.1314,-1.1378,-1.139,-1.1406,-1.1468,-1.1479,-1.1454,-1.1459,-1.1533,-1.1539,-1.1545,-1.1527,-1.158,-1.1581,-1.1583,-1.1568,-1.1566,-1.1565,0,0,0,0,0,0,-1.124,-1.1249,-1.1335,-1.1303,-1.1316,-1.1378,-1.1395,-1.1406,-1.142,-1.1479,-1.1491,-1.1457,-1.1534,-1.1542,-1.155,-1.1531,-1.1582,-1.1584,-1.157,-1.1568,-1.1566,-1.149,0,0,0,0,0,0,-1.1237,-1.1248,-1.1243,-1.1303,-1.1317,-1.134,-1.1394,-1.1407,-1.1424,-1.1431,-1.1485,-1.1495,-1.1536,-1.1547,-1.1552,-1.1534,-1.1586,-1.1572,-1.1569,-1.1566,-1.1494,-1.1485,-1.1477,0,0,0,0,0,-1.1233,-1.1217,-1.1242,-1.1251,-1.1313,-1.1339,-1.1347,-1.1397,-1.1422,-1.1417,-1.1455,-1.1493,-1.1532,-1.1547,-1.1554,-1.1536,-1.1574,-1.157,-1.1567,-1.1498,-1.1487,-1.1477,0,0,0,0,0,0,-1.1151,-1.1226,-1.1255,-1.1258,-1.1292,-1.1353,-1.1348,-1.1384,-1.1409,-1.1415,-1.1474,-1.1485,-1.1486,-1.1512,-1.1527,-1.1521,-1.1558,-1.1556,-1.1504,-1.1493,-1.1485,-1.1478,-1.1587,0,0,0,0,0,-1.1134,-1.1151,-1.1215,-1.1212,-1.1227,-1.1284,-1.1298,-1.1334,-1.137,-1.1384,-1.1422,-1.1454,-1.1474,-1.1485,-1.1507,-1.1499,-1.151,-1.149,-1.1481,-1.1474,-1.1471,-1.1466,-1.1457,-1.1553,-1.1553,-1.1553,0,0,-1.1098,-1.1141,-1.1148,-1.1196,-1.1227,-1.1241,-1.1296,-1.1309,-1.1319,-1.1385,-1.1395,-1.1424,-1.1464,-1.1463,-1.1465,-1.1485,-1.1447,-1.1469,-1.1463,-1.1464,-1.1462,-1.1453,-1.1444,-1.1551,-1.1551,-1.1552,0,0,-1.104,-1.1075,-1.1076,-1.1105,-1.1151,-1.1189,-1.1189,-1.1244,-1.1267,-1.1278,-1.1328,-1.134,-1.1373,-1.1399,-1.1416,-1.1366,-1.1401,-1.1371,-1.1326,-1.1321,-1.1314,-1.1307,-1.1288,-1.128,-1.1368,-1.1368,-1.1368,0,-1.0988,-1.1014,-1.1071,-1.1081,-1.11,-1.1162,-1.1162,-1.1187,-1.1236,-1.1247,-1.1269,-1.1311,-1.1342,-1.1348,-1.1335,-1.1348,-1.1348,-1.1365,-1.1311,-1.1305,-1.13,-1.1282,-1.1274,-1.1364,-1.1364,-1.1365,-1.1365,0,-1.0948,-1.0965,-1.096,-1.1008,-1.1026,-1.1031,-1.1086,-1.1097,-1.1131,-1.1165,-1.1175,-1.1215,-1.1244,-1.1249,-1.1281,-1.1258,-1.1269,-1.13,-1.1339,-1.1285,-1.1269,-1.1263,-1.1358,-1.136,-1.1361,-1.1362,0,0,-1.0841,-1.092,-1.0917,-1.0939,-1.0994,-1.1007,-1.1013,-1.1044,-1.1052,-1.1083,-1.1089,-1.1115,-1.1144,-1.1163,-1.1199,-1.1195,-1.1151,-1.1227,-1.1229,-1.121,-1.1126,-1.1101,-1.1092,-1.1176,-1.1175,-1.1174,-1.1122,0,-1.079,-1.0808,-1.0858,-1.086,-1.0875,-1.0934,-1.0939,-1.0972,-1.1004,-1.102,-1.1055,-1.1072,-1.111,-1.1122,-1.1121,-1.1157,-1.1135,-1.1161,-1.1178,-1.1178,-1.1165,-1.1084,-1.1058,-1.1007,-1.1116,-1.1115,-1.1114,0,-1.0734,-1.0763,-1.0766,-1.0819,-1.0828,-1.0832,-1.0863,-1.0879,-1.0916,-1.094,-1.0961,-1.1001,-1.1009,-1.1046,-1.1056,-1.1073,-1.1083,-1.1101,-1.11,-1.1102,-1.1142,-1.1082,-1.0992,-1.0984,-1.1105,-1.1106,-1.1107,0,-1.0653,-1.0693,-1.07,-1.0717,-1.078,-1.0781,-1.0806,-1.0846,-1.0861,-1.0888,-1.0897,-1.0924,-1.0938,-1.0957,-1.1002,-1.1025,-1.1006,-1.1047,-1.1024,-1.1022,-1.1016,-1.1015,-1.0924,-1.1025,-1.1025,-1.1025,-1.1025,0,-1.059,-1.0589,-1.0664,-1.0668,-1.0668,-1.0725,-1.0723,-1.0754,-1.0788,-1.0797,-1.0849,-1.0856,-1.0917,-1.093,-1.0965,-1.0967,-1.0973,-1.0991,-1.1,-1.0985,-1.0983,-1.0991,-1.0995,-1.1023,-1.1024,-1.1024,-1.1024,0,-1.0499,-1.055,-1.0561,-1.062,-1.0634,-1.0631,-1.068,-1.0685,-1.0721,-1.0732,-1.0737,-1.0792,-1.081,-1.0858,-1.0888,-1.0912,-1.0903,-1.0921,-1.089,-1.0896,-1.0869,-1.087,-1.078,-1.077,-1.0877,-1.0876,-1.0875,0,-1.0455,-1.0456,-1.0515,-1.0526,-1.055,-1.0567,-1.0583,-1.0638,-1.0652,-1.0694,-1.0693,-1.0716,-1.0737,-1.0762,-1.0804,-1.0826,-1.0844,-1.0811,-1.0848,-1.0833,-1.0842,-1.084,-1.084,-1.0802,-1.0801,-1.0799,-1.0799,0,-1.0371,-1.0396,-1.0418,-1.0448,-1.0466,-1.0492,-1.0521,-1.0526,-1.0588,-1.06,-1.0621,-1.0637,-1.0668,-1.0689,-1.0718,-1.0742,-1.0779,-1.0787,-1.0782,-1.0766,-1.0748,-1.0756,-1.0866,-1.0788,-1.0789,-1.079,-1.0791,-1.0791,-1.0302,-1.0305,-1.0346,-1.0368,-1.0396,-1.0421,-1.0429,-1.0466,-1.0484,-1.0515,-1.0546,-1.0562,-1.0598,-1.0641,-1.0662,-1.0674,-1.0694,-1.0688,-1.0686,-1.0683,-1.0676,-1.0748,-1.068,-1.068,-1.0681,-1.0681,-1.0681,0,-1.0219,-1.0249,-1.0269,-1.0308,-1.0324,-1.0361,-1.0394,-1.0405,-1.0419,-1.045,-1.047,-1.0492,-1.0512,-1.0555,-1.0579,-1.058,-1.0597,-1.0584,-1.0583,-1.0588,-1.0658,-1.0658,-1.0569,-1.0569,-1.0569,-1.0569,-1.0569,-1.0569,-1.0178,-1.0184,-1.0214,-1.0233,-1.0263,-1.0281,-1.0296,-1.0319,-1.0344,-1.0367,-1.0384,-1.0413,-1.0448,-1.0475,-1.0494,-1.0506,-1.0511,-1.0492,-1.0509,-1.0573,-1.0583,-1.0593,-1.0594,-1.0493,-1.0493,-1.0438,-1.0437,-1.0437]}]]